User: anonymous   Login
Location: Brno
(49.2000°N, 16.6330°E)
Time: 15:57:30
(UTC+02:00)
Language:

Cosmos 1603 - Orbit

View from above orbital plane
View from above orbital plane
View from above satellite
View from above satellite

Ground track
Ground track

The orbit data is extracted from the following two-line orbital elements,

1 15333U 84106A   16119.74060147  .00000095  00000-0  74901-4 0  9990
2 15333  71.0260 240.1911 0018167 121.6470 238.6428 14.14026708629671
Epoch (UTC): 28 April 2016 17:46:27
Eccentricity: 0.0018167
inclination: 71.0260°
perigee height: 832 km
apogee height: 859 km
right ascension of ascending node: 240.1911°
argument of perigee: 121.6470°
revolutions per day: 14.14026708
mean anomaly at epoch: 238.6428°
orbit number at epoch: 62967

The dashed part of the orbit path shows where the satellite is in the earth's shadow,  

DLR